Location: Unspecified
(0.0000°N, 0.0000°E)
Time: 06:49:54
(UTC+00:00)

Envisat - Pass Details

Date: 23 July 2017
Orbit: 764 x 766 km, 98.2° (Epoch: 20 July)

Event Time Altitude Azimuth Distance (km) Brightness Sun altitude
Exits shadow 20:26:18 26° 353° (N) 1,458 4.6 -32.6°
Drops below altitude 10° 20:28:28 10° 351° (N) 2,291 5.8 -33.1°
Sets 20:30:45 0° 350° (N) 3,214 6.6 -33.6°
